Погода Кокшетау

Погода Кокшетау : погода сейчас, прогноз погоды и архив. Всё, что Вы хотите узнать о погоде Кокшетау!

Хотите узнать прогноз погоды в Кокчетаве? Тогда Вам сюда: Погода в Кокчетаве

Поиск расширенной информации на нашем сайте:

Другие новости

Новости СМИ2

Главная страница сайта

Новости сайта

02.10.2013

Напоминаем, что на нашем новом сайте вы можете получить высокодетализированные прогнозы погоды по пунктам России, СНГ и мира (включающие важные для авиации метеовеличины, такие как направление и скорость ветра, видимость, явления погоды, количество и форма облачности, нижняя и верхняя граница облачности), а также ознакомиться с разнообразными материалами по авиационной метеорологии и подборкой полезных ссылок на эту тему.

Сайт Метеоцентр.Азия посвящён разработке технологий оптимизации авиаметеорологического обслуживания, включая проектирование и перспективное создание нескольких автоматизированных авиаметеорологических систем:
- система выпуска высокодетальных прогностических карт явлений погоды для нижнего воздушного пространства по России и ближнему зарубежью;
- система верификации прогнозов TAF (выпускаемых синоптиками официальных АМСГ РФ и ближнего зарубежья) и AUTOTAF (выпускаемых сайтом Метеоцентр.Азия) - выявление ошибок, онлайн-сопоставление с фактической погодой METAR, автоматическое внесение коррективов в прогнозы при резком отклонении фактической погоды от прогноза, подсчёт оправдываемости прогнозов по элементам и в целом;
- система обработки, анализа и отображения авиаметеорологической информации для применения провайдерами метеорологической информации.


Погода Кокшетау - сегодня

Время (UTC), дата Ветер
(°,м/с) 
Видим.   Явления Облачность Т
(°С)
Тd
(°С)
f(%) Тe
(°С)
Pmin
(гПа)
dP
(гПа)
Po
(мм)
O2
(г/м3)
Тmin Tmax R s Состояние
почвы
15 25.02.17 210 (ЮЗ) н/о  слаб. ливневой снег  10/10 300 м кучево-дожд. 
[Cb cap]
-0.2 -2.2 86 -3  1018.2  0.5  742  299    -0.3  0.0     
18 25.02.17 210 (ЮЗ) н/о  в посл. час ливневой снег  10/10 300 м кучево-дожд. 
[Cb cap]
-0.9 -2.8 87 -4  1018.4  0.1  742  300    -0.3  0.0     
21 25.02.17 210 (ЮЗ) н/о    ясно 
-2.5 -4.7 85 -7  1018.8  0.2  742  302           
00 26.02.17 190 (Ю) н/о    10/10 600 м 
[Sc]
-4 -6.6 82 -6  1019.2  0.2  743  304           
03 26.02.17 220 (ЮЗ) 11-15{18}  20000 м    10/10 600 м кучево-дожд. 
[Cb cap]
-1.7 -3.4 88 -7  1017.9  742  301      0.0  10  равномерный
мокрый или
старый снег
100% 
06 26.02.17 210 (ЮЗ) 12{18}  20000 м  слаб. ливневой дождь  10/10 600 м кучево-дожд. 
[Cb cap]
+0.5 -2 83 -5  1016.7  -0.9  741  298  -4.8    0.0     
09 26.02.17 220 (ЮЗ) 10{21}  20000 м  слаб. ливневой дождь  10/10 600 м кучево-дожд. 
[Cb cap]
+1.9 +0.6 91 -3  1016.7  0.1  741  296           
12 26.02.17 220 (ЮЗ) 14-16{20}  20000 м  в посл. час ливневой дождь  10/10 600 м кучево-дожд. 
[Cb cap]
+2 -0.5 83 -3  1018.1  1.4  742  297           
15 26.02.17 200 (Ю) 12{20}  н/о    10/10 600 м кучево-дожд. 
[Cb cap]
+1.7 -0.8 83 -3  1018.4  0.3  742  297    +2.8  0.3     
18 26.02.17 190 (Ю) 6{19}  н/о    10/10 1000 м 
[Sc]
+1.1 -1.5 83 -2  1018.5  742  298    +2.8  0.3     
21 26.02.17 200 (Ю) 14-16{19}  н/о    10/10 1000 м 
[Sc]
-1.7 -4.4 82 -8  1017.4  -1.4  741  301           
00 27.02.17 200 (Ю) 9{19}  н/о    6/0 
[Sc]
-1.8 -4.5 82 -7  1015.5  -1.8  740  301           
03 27.02.17 170 (Ю) 20000 м    4/4 1000 м 
[Sc]
-2.6 -5.5 80 -7  1012.6  -2.9  738  301        равномерный
мокрый или
старый снег
100% 
06 27.02.17 150 (ЮВ) 15-19{25}  20000 м    10/10 600 м кучево-дожд. 
[Cb cap]
-0.8 -3.9 79 -7  1011.2  -1.2  737  298  -2.8         
09 27.02.17 240 (ЮЗ) 15-18{23}  20000 м  позёмок{ливн. осадки}  10/10 600 м кучево-дожд. 
[Cb cap]
-0.3 -2.7 84 -6  1013.4  2.2  739  298           
12 27.02.17 250 (З) 11{18}  20000 м  позёмок{ливн. осадки}  8/0 средняя 
[Ac und]
-2.6 -7 72 -8  1019.6  5.8  743  303           
15 27.02.17 220 (ЮЗ) н/о    8/0 средняя 
[Ac und]
-4.6 -7.7 79 -9  1023.3  3.3  745  306    -0.3  0.6     
18 27.02.17 210 (ЮЗ) н/о    ясно 
-6.1 -8.4 84 -12  1025.4  1.9  747  309    -0.3  0.6     
21 27.02.17 220 (ЮЗ) н/о    ясно 
-8.4 -10.3 86 -13  1026.9  1.2  748  312           
00 28.02.17 210 (ЮЗ) н/о    ясно 
-8.1 -9.9 87 -14  1027.4  0.5  748  312           
03 28.02.17 150 (ЮВ) 20000 м    3/0 верхняя 
[Ci fib]
-10.3 -12 87 -12  1028.3  0.7  749  315        равномерный
мокрый или
старый снег
100% 
06 28.02.17 210 (ЮЗ) 20000 м    3/0 верхняя 
[Ci fib]
-6.4 -9.6 78 -11  1028.2  0.3  749  310  -10.4         
09 28.02.17 240 (ЮЗ) 20000 м    3/0 верхняя 
[Ci fib]
-2.7 -7.6 69 -7  1026.9  -0.9  748  305           
12 28.02.17 230 (ЮЗ) 20000 м    3/0 верхняя 
[Ci fib]
-3.8 -7.5 75 -7  1026.6  -0.4  748  306           
15 28.02.17 210 (ЮЗ) н/о    ясно 
-8.9 -10.9 85 -13  1027.2  748  313    -2.4       
Время (UTC), дата Ветер
(°,м/с) 
Видим.   Явления Облачность Т
(°С)
Тd
(°С)
f(%) Тe
(°С)
Pmin
(гПа)
dP
(гПа)
Po
(мм)
O2
(г/м3)
Тmin Tmax R s Состояние
почвы

Для получения пояснительной информации подведите курсор к названию столбца.

ПОГОДА Кокшетау - архив

Всё, что Вы хотите узнать о погоде Кокшетау - удобно и подробно!

Выберите нужную дату (начиная с 1 января 2015* года) и нажмите кнопку "Найти".
Будут отображены архивные сводки погоды по пункту Кокшетау, начиная с указанной даты.


Отображать данные в формате CSV (для использования в таблицах Excel)


Внимание! Наш архив погоды предназначен исключительно для личного некоммерческого использования в познавательных целях. Если Вам необходимы официальные справки о состоянии погоды (для производственных, юридических, коммерческих и т.п. целей), обращайтесь в органы Росгидромета.

*Примечание: данная дата относится к архиву по метеостанциям СССР (Россия, СНГ, Балтия).
Архив по метеостанциям Зарубежной Европы и Азии (кроме Китая) хранится 10 дней, по другим регионам земного шара (Китай, Африка, Америка, Австралия, Океания) - 1 день.

Кокшетау - район местоположения метеостанции


Название, широта, долгота, высота метеостанции:
Кокшетау 53.3°ш. 69.4°д. 229 м над ур. моря [Казахстан]

Дополнительная информация

В oтличие oт бoльшинства пoгoдных сайтoв мы публикуем пoдрoбную метеoинфoрмацию в детальнoм прoфессиoнальнoм фoрмате.

Характеристики температуры и влажнoсти вoздуха измеряются на высoте 2 м в тени вдали oт зданий и деревьев.
Скoрoсть ветра измеряется на высoте 10 м (на урoвне рoста челoвека скoрoсть ветра ниже в 1.5-2 раза). Если метеoстанция нахoдится в гoрoде или в лесу, тo скoрoсть ветра занижена на 2-4 м/с пo сравнению с oткрытым местoм. Скoрoсть ветра над акватoриями крупных рек и oзёр, а также на вершинах хoлмoв на 2-5 м/с выше, чем в oбычных услoвиях.
Атмoсфернoе давление в разных тoчках местнoсти мoжет значительнo oтличаться oт давления на метеoстанции, в зависимoсти oт услoвий рельефа (при пoдъёме на 10 м давление пoнижается примернo на 1 мм рт.ст.).